Weather History for Harrisburg, PA

Change the Weather History Date:

Thursday, March 7, 2013

  Actual Average Record
Temperature  
Mean Temperature 42 °F -  
Max Temperature 46 °F 43 °F 74 °F (1921)
Min Temperature 37 °F 27 °F 8 °F (1890)
Degree Days  
Heating Degree Days 24    
Moisture  
Dew Point 23 °F    
Average Humidity 50    
Maximum Humidity 65    
Minimum Humidity 36    
Precipitation  
Precipitation 0.00 in - - ()
Sea Level Pressure  
Sea Level Pressure 30.11 in    
Wind  
Wind Speed 9 mph (NNW)    
Max Wind Speed 17 mph    
Max Gust Speed 25 mph    
Visibility 10 miles    
Events      
Averages and records for this station are not official NWS values.
T = Trace of Precipitation, MM = Missing Value Source: NWS Daily Summary

Daily Weather History Graph

Daily Weather History Graph

Search for Another Location

Airport:

Trip Planner

Search our weather history database for the weather conditions in past years. The results will help you decide how hot, cold, wet, or windy it might be!

Date:

Astronomy

Mar. 07, 2013 Rise Set
Actual Time 6:31 AM EST 6:05 PM EST
Civil Twilight 6:04 AM EST 6:33 PM EST
Nautical Twilight 5:32 AM EST 7:04 PM EST
Astronomical Twilight 5:01 AM EST 7:36 PM EST
Moon 3:29 AM EST (3/7) 1:51 PM EST (3/7)
Length of Visible Light 12h 28m
Length of Day
11h 34m
Waning Crescent, 20% of the Moon is Illuminated
Mar 7
Waning Crescent
Mar 11
New
Mar 19
First Quarter
Mar 27
Full
Apr 3
Last Quarter

Hourly Weather History & Observations

Time (EST) Temp. Windchill Dew Point Humidity Pressure Visibility Wind Dir Wind Speed Gust Speed Precip Events Conditions
12:56 AM 39.0 °F 34.0 °F 26.1 °F 60% 30.04 in 10.0 mi North 6.9 mph - N/A   Mostly Cloudy
1:56 AM 37.9 °F 33.5 °F 27.0 °F 65% 30.04 in 10.0 mi NNW 5.8 mph - N/A   Mostly Cloudy
2:56 AM 37.9 °F 34.4 °F 26.1 °F 62% 30.04 in 10.0 mi NNW 4.6 mph - N/A   Overcast
3:56 AM 37.9 °F 32.1 °F 25.0 °F 60% 30.06 in 10.0 mi NNW 8.1 mph - N/A   Overcast
4:56 AM 37.9 °F 30.5 °F 24.1 °F 57% 30.06 in 10.0 mi North 11.5 mph 17.3 mph N/A   Overcast
5:56 AM 37.9 °F 28.9 °F 21.9 °F 53% 30.06 in 10.0 mi NNW 16.1 mph 23.0 mph N/A   Overcast
6:56 AM 37.9 °F 32.7 °F 21.9 °F 53% 30.07 in 10.0 mi North 6.9 mph 18.4 mph N/A   Overcast
7:56 AM 37.9 °F 30.5 °F 21.9 °F 53% 30.09 in 10.0 mi NNW 11.5 mph 16.1 mph N/A   Overcast
8:56 AM 39.0 °F 31.4 °F 21.9 °F 50% 30.12 in 10.0 mi North 12.7 mph 23.0 mph N/A   Overcast
9:56 AM 39.0 °F 32.3 °F 21.9 °F 50% 30.14 in 10.0 mi North 10.4 mph 18.4 mph N/A   Overcast
10:56 AM 42.1 °F 34.5 °F 21.9 °F 45% 30.13 in 10.0 mi North 15.0 mph 23.0 mph N/A   Mostly Cloudy
11:56 AM 42.1 °F 36.1 °F 21.9 °F 45% 30.13 in 10.0 mi North 10.4 mph 21.9 mph N/A   Overcast
12:56 PM 45.0 °F 37.6 °F 21.9 °F 40% 30.12 in 10.0 mi NW 17.3 mph 25.3 mph N/A   Scattered Clouds
1:56 PM 46.9 °F - 21.9 °F 37% 30.09 in 10.0 mi North 11.5 mph 20.7 mph N/A   Clear
3:56 PM 46.9 °F - 21.0 °F 36% 30.11 in 10.0 mi NNW 10.4 mph 18.4 mph N/A   Mostly Cloudy
4:56 PM 46.0 °F 40.2 °F 21.0 °F 37% 30.11 in 10.0 mi North 12.7 mph 19.6 mph N/A   Partly Cloudy
5:56 PM 44.1 °F 39.0 °F 21.0 °F 40% 30.13 in 10.0 mi North 9.2 mph - N/A   Clear
6:56 PM 43.0 °F 39.5 °F 21.0 °F 42% 30.15 in 10.0 mi North 5.8 mph - N/A   Clear
7:56 PM 42.1 °F 37.7 °F 21.0 °F 43% 30.16 in 10.0 mi North 6.9 mph - N/A   Clear
8:56 PM 41.0 °F 35.8 °F 21.9 °F 47% 30.16 in 10.0 mi North 8.1 mph - N/A   Mostly Cloudy
9:56 PM 39.9 °F 36.7 °F 24.1 °F 53% 30.16 in 10.0 mi North 4.6 mph - N/A   Scattered Clouds
10:56 PM 39.0 °F 32.3 °F 25.0 °F 57% 30.16 in 10.0 mi NNW 10.4 mph - N/A   Mostly Cloudy
11:56 PM 37.9 °F 32.1 °F 24.1 °F 57% 30.16 in 10.0 mi North 8.1 mph - N/A   Mostly Cloudy